Barking Sands, HI

12:40 AM HST on December 14, 2017 (GMT -1000)
Barking Sands PMRF

Weather History for PHBK - February, 2014

Change the Weather History Date:

Tuesday, February 11, 2014

  Actual Average Record
Temperature  
Mean Temperature 76 °F -  
Max Temperature 79 °F 80 °F 85 °F (1969)
Min Temperature 73 °F 61 °F 56 °F (1973)
Cooling Degree Days 11    
Growing Degree Days 26 (Base 50)    
Moisture  
Dew Point 70 °F    
Average Humidity 79    
Maximum Humidity 90    
Minimum Humidity 71    
Precipitation  
Precipitation 0.00 in - - ()
Sea Level Pressure  
Sea Level Pressure 30.00 in    
Wind  
Wind Speed 6 mph (NNE)    
Max Wind Speed 15 mph    
Max Gust Speed -    
Visibility 9 miles    
Events Rain    
Averages and records for this station are not official NWS values.
T = Trace of Precipitation, MM = Missing Value Source: NWS Daily Summary

Daily Weather History Graph

Daily Weather History Graph

Search for Another Location

Airport or City:

Trip Planner

Search our weather history database for the weather conditions in past years. The results will help you decide how hot, cold, wet, or windy it might be!

Date:

Astronomy

Feb. 11, 2014 Rise Set
Actual Time 7:12 AM HST 6:34 PM HST
Civil Twilight 6:49 AM HST 6:57 PM HST
Nautical Twilight 6:23 AM HST 7:23 PM HST
Astronomical Twilight 5:57 AM HST 7:49 PM HST
Moon 4:12 PM HST (2/11) 4:48 AM HST (2/11)
Length of Visible Light 12h 07m
Length of Day
11h 21m
Waxing Gibbous, 92% of the Moon is Illuminated
Feb 11
Waxing Gibbous
Feb 14
Full
Feb 22
Last Quarter
Feb 28
New
Mar 8
First Quarter

Hourly Weather History & Observations

Time (HST) Temp. Dew Point Humidity Pressure Visibility Wind Dir Wind Speed Gust Speed Precip Events Conditions
12:56 AM - - N/A% 30.02 in 10.0 mi SE 5.8 mph - N/A   Partly Cloudy
1:51 AM - - N/A% 30.00 in 10.0 mi ESE 3.5 mph - N/A   Mostly Cloudy
1:56 AM - - N/A% 30.01 in 10.0 mi Calm Calm - N/A   Mostly Cloudy
2:10 AM - - N/A% 30.00 in 10.0 mi East 3.5 mph - N/A   Scattered Clouds
2:56 AM - - N/A% 30.00 in 10.0 mi SE 3.5 mph - N/A   Partly Cloudy
3:56 AM - - N/A% 30.00 in 10.0 mi East 3.5 mph - N/A   Scattered Clouds
4:19 AM - - N/A% 29.98 in 10.0 mi NW 6.9 mph - N/A   Mostly Cloudy
4:28 AM - - N/A% 29.98 in 10.0 mi NNW 8.1 mph - N/A   Overcast
4:56 AM - - N/A% 29.99 in 9.0 mi North 9.2 mph - 0.00 in   Overcast
5:29 AM - - N/A% 29.98 in 10.0 mi North 4.6 mph - 0.00 in   Overcast
5:39 AM - - N/A% 29.99 in 10.0 mi North 8.1 mph - 0.00 in   Overcast
5:56 AM - - N/A% 30.00 in 10.0 mi North 8.1 mph - 0.00 in Rain Light Rain
6:05 AM - - N/A% 29.99 in 6.2 mi North 8.1 mph - 0.00 in Rain Light Rain
6:07 AM - - N/A% 29.99 in 6.2 mi NNE 6.9 mph - 0.00 in Rain Light Rain
6:56 AM - - N/A% 30.02 in 10.0 mi NNE 8.1 mph - 0.00 in   Mostly Cloudy
7:22 AM - - N/A% 30.00 in 6.2 mi NNE 3.5 mph - N/A   Scattered Clouds
7:56 AM - - N/A% 30.02 in 6.0 mi NE 3.5 mph - N/A   Haze
8:56 AM - - N/A% 30.03 in 10.0 mi Calm Calm - N/A   Clear
9:26 AM - - N/A% 30.03 in 4.0 mi SSW 3.5 mph - N/A   Haze
9:56 AM - - N/A% 30.04 in 10.0 mi South 5.8 mph - N/A   Clear
10:56 AM 79.0 °F 70.0 °F 74% 30.03 in 10.0 mi SSE 9.2 mph - N/A   Clear
11:56 AM 79.0 °F 69.1 °F 72% 30.01 in 10.0 mi SSE 8.1 mph - N/A   Clear
12:56 PM 78.1 °F 68.0 °F 71% 29.99 in 10.0 mi South 10.4 mph - N/A   Unknown
1:56 PM 78.1 °F 70.0 °F 76% 29.97 in 10.0 mi SSW 6.9 mph - N/A   Partly Cloudy
2:56 PM 78.1 °F 71.1 °F 79% 29.95 in 10.0 mi West 4.6 mph - N/A   Clear
3:56 PM 77.0 °F 70.0 °F 79% 29.95 in 10.0 mi NW 5.8 mph - N/A   Mostly Cloudy
4:24 PM 78.8 °F 69.8 °F 74% 29.94 in 10.0 mi NW 5.8 mph - N/A   Mostly Cloudy
4:56 PM 78.1 °F 70.0 °F 76% 29.95 in 10.0 mi NNW 5.8 mph - N/A   Partly Cloudy
5:56 PM 75.9 °F 69.1 °F 79% 29.97 in 10.0 mi North 8.1 mph - N/A   Mostly Cloudy
6:56 PM 75.0 °F 69.1 °F 82% 29.98 in 10.0 mi North 6.9 mph - N/A   Clear
7:56 PM 75.0 °F 68.0 °F 79% 29.99 in 10.0 mi North 4.6 mph - N/A   Overcast
8:24 PM 75.2 °F 69.8 °F 83% 29.99 in 10.0 mi North 9.2 mph - N/A   Overcast
8:41 PM 73.4 °F 69.8 °F 88% 29.99 in 10.0 mi North 15.0 mph - N/A   Overcast
8:56 PM 73.0 °F 70.0 °F 90% 30.01 in 10.0 mi North 13.8 mph - N/A   Overcast
9:56 PM - - N/A% 30.02 in 10.0 mi North 11.5 mph - N/A   Overcast
10:24 PM - - N/A% 30.01 in 10.0 mi North 12.7 mph - N/A   Overcast
10:56 PM - - N/A% 30.02 in 10.0 mi NNE 10.4 mph - N/A   Overcast
11:56 PM - - N/A% 30.01 in 10.0 mi North 8.1 mph - N/A   Overcast